Location: Newark
(41.8083°N, 72.2500°W)
Time: 20:57:27
(UTC+00:00)

Courier 1B - Pass Details

Date: 08 December 2021
Orbit: 962 x 1209 km, 28.3° (Epoch: 19 January)

Event Time Altitude Azimuth Distance (km) Brightness Sun altitude
Rises 20:59:23 0° 244° (WSW) 4,092 13.3 2.1°
Reaches altitude 10° 21:02:41 10° 234° (SW) 3,111 12.7 1.6°
Maximum altitude 21:09:03 29° 178° (S) 1,991 9.6 0.6°
Drops below altitude 10° 21:15:12 10° 122° (ESE) 2,988 9.8 -0.4°
Sets 21:18:18 0° 111° (ESE) 3,905 10.3 -0.9°
